Location: *
(43.7000°S, 168.7000°W)
Time: 14:57:36
(UTC+00:00)

Lacrosse 5 rocket - Pass Details

Date: 07 July 2020
Orbit: 464 x 632 km, 57.0° (Epoch: 03 August)

Event Time Altitude Azimuth Distance (km) Brightness Sun altitude
Exits shadow 16:56:43 21° 329° (NNW) 1,147 2.7 -19.4°
Maximum altitude 16:59:05 65° 46° (NE) 562 1.5 -18.9°
Drops below altitude 10° 17:03:03 10° 128° (SE) 1,780 4.4 -18.2°
Sets 17:05:20 0° 130° (SE) 2,706 5.4 -17.8°
